Satellite-Ground Cal/Val Site Overpasses Predictions

Prediction of Satellite NPP Overpassing Cal/Val Site: Antarctic Dome C

Ground Cal/Val Site Location: Latitude: -75.10, Longitude: 123.35; Satellite-Ground Site NADIR distance within 100 km.

Table of predicted overpasses for the next 14.0 days since TLE Epoch: 7/17/2021
Interval Starting Time Ending Time Minimum Distance Time Minimum Distance (km)
1 07/19/2021 14:55:08 07/19/2021 14:55:37 07/19/2021 14:55:23 24.03
2 07/20/2021 14:36:27 07/20/2021 14:36:43 07/20/2021 14:36:35 83.11
3 07/21/2021 07:38:00 07/21/2021 07:38:27 07/21/2021 07:38:13 36.57
4 07/22/2021 07:19:15 07/22/2021 07:19:35 07/22/2021 07:19:25 73.34
5 07/24/2021 15:01:32 07/24/2021 15:01:55 07/24/2021 15:01:43 61.28
6 07/25/2021 14:42:41 07/25/2021 14:43:07 07/25/2021 14:42:54 47.93
7 07/26/2021 07:44:23 07/26/2021 07:44:43 07/26/2021 07:44:33 71.98
8 07/27/2021 07:25:32 07/27/2021 07:25:59 07/27/2021 07:25:45 35.77
9 07/29/2021 15:08:01 07/29/2021 15:08:04 07/29/2021 15:08:03 99.30
